Stations météo

Publicité
Boulogne, France (7002): Température de l'air & dewpoint: 17.03.2019 23:00:00 - 23.03.2019 23:00:00 (CET)Boulogne, France (7002): Vitesse du vent & gusts: 17.03.2019 23:00:00 - 23.03.2019 23:00:00 (CET)Boulogne, France (7002): Direction du vent: 17.03.2019 23:00:00 - 23.03.2019 23:00:00 (CET)Boulogne, France (7002): reduced air pressure: 17.03.2019 23:00:00 - 23.03.2019 23:00:00 (CET)Boulogne, France (7002): visibility: 17.03.2019 23:00:00 - 23.03.2019 23:00:00 (CET)Boulogne, France (7002): Quantités de précipitations: 17.03.2019 23:00:00 - 23.03.2019 23:00:00 (CET)
Date & Time tt [°C] td [°C] ff [km/h] ff [knt] fx [km/h] fx [knt] dd ppp [hPa] vv [km] rr [mm]
23.03.2019 23:00:00 7,5 4,4 23 12 35 19 ENE 1031,8 - 0,0
23.03.2019 22:00:00 7,7 4,6 16 9 34 18 ENE 1032,1 12 0,0
23.03.2019 21:00:00 7,9 5,4 13 7 29 15 NE 1032,1 - 0,0
23.03.2019 20:00:00 8,2 5,5 13 7 29 15 NE 1031,9 - 0,0
23.03.2019 19:00:00 8,6 5,7 11 6 29 16 NE 1031,8 - 0,0
23.03.2019 18:00:00 8,9 4,9 15 8 31 17 NE 1031,8 - 0,0
23.03.2019 17:00:00 9,5 5,1 16 9 37 20 ENE 1031,9 - 0,0
23.03.2019 16:00:00 9,4 5,9 21 11 43 23 ENE 1031,8 12 0,0
23.03.2019 15:00:00 9,6 6,5 16 8 33 18 NE 1031,7 - 0,0
23.03.2019 14:00:00 10,1 7,9 14 8 24 13 NNE 1031,9 - 0,0
23.03.2019 13:00:00 10,1 8,0 11 6 18 10 NNE 1031,7 4,0 0,0
23.03.2019 12:00:00 9,4 8,5 6 4 12 7 NNW 1031,7 - 0,0
23.03.2019 11:00:00 8,9 8,1 6 3 10 5 NW 1031,7 - 0,0
23.03.2019 10:00:00 8,9 8,4 3 2 6 3 W 1031,3 4,0 0,0
23.03.2019 09:00:00 8,8 8,3 2 1 4 2 W 1030,9 - 0,0
23.03.2019 08:00:00 8,6 8,2 3 1 6 3 WSW 1030,5 - 0,0
23.03.2019 07:00:00 8,6 8,3 5 3 11 6 W 1030,2 2,0 0,0
23.03.2019 06:00:00 8,6 8,2 7 4 12 6 W 1029,8 - 0,0
23.03.2019 05:00:00 8,5 8,1 6 3 12 6 SSW 1029,4 - 0,0
23.03.2019 04:00:00 8,4 7,8 9 5 16 9 WSW 1029,2 6 0,0
23.03.2019 03:00:00 8,7 7,1 7 4 10 5 SW 1029,2 - 0,0
23.03.2019 02:00:00 8,8 7,1 7 4 19 10 NW 1029,6 - 0,0
23.03.2019 01:00:00 8,8 6,4 11 6 30 16 WNW 1029,3 6 0,0
23.03.2019 00:00:00 8,7 5,8 18 10 27 15 W 1029,2 - 0,0
22.03.2019 23:00:00 8,5 7,4 14 8 22 12 SW 1029,1 - 0,0
22.03.2019 22:00:00 8,3 7,4 13 7 22 12 SW 1029,2 4,0 0,0
22.03.2019 21:00:00 8,0 6,9 18 10 23 12 WSW 1029,1 - 0,0
22.03.2019 20:00:00 7,9 6,8 15 8 22 12 WSW 1029,1 - 0,0
22.03.2019 19:00:00 7,9 6,8 14 8 23 12 WSW 1028,5 1,8 0,0
22.03.2019 18:00:00 8,1 6,9 12 7 23 12 SW 1028,4 - 0,0
22.03.2019 17:00:00 8,0 6,8 14 8 25 13 WSW 1028,6 - 0,0
22.03.2019 16:00:00 8,1 6,9 13 7 23 13 SW 1028,6 - 0,0
22.03.2019 15:00:00 8,0 6,8 10 5 19 10 WSW 1028,8 - 0,0
22.03.2019 14:00:00 7,8 6,6 9 5 18 10 W 1029,3 - 0,0
22.03.2019 13:00:00 7,9 6,8 9 5 18 10 W 1029,9 - 0,0
22.03.2019 12:00:00 7,9 7,0 9 5 13 7 W 1030,1 - 0,0
22.03.2019 11:00:00 7,8 6,9 5 3 9 5 WNW 1030,4 - 0,0
22.03.2019 10:00:00 7,7 6,9 4 2 8 4 NW 1030,4 - 0,0
22.03.2019 09:00:00 7,6 7,2 2 1 6 4 NNE 1030,4 - 0,0
22.03.2019 08:00:00 7,3 6,9 4 2 8 4 N 1030,8 - 0,0
22.03.2019 07:00:00 7,2 6,8 2 1 5 3 NNW 1030,8 1,5 0,0
22.03.2019 06:00:00 7,2 6,6 0 0 6 3 N 1030,6 - 0,0
22.03.2019 05:00:00 7,2 6,6 4 2 8 5 ESE 1030,8 - 0,0
22.03.2019 04:00:00 7,5 6,8 4 2 20 11 E 1031,1 5 0,0
22.03.2019 03:00:00 7,9 6,7 11 6 21 11 SSE 1031,0 - 0,0
22.03.2019 02:00:00 8,1 6,6 9 5 17 9 SSE 1031,5 - 0,0
22.03.2019 01:00:00 8,2 6,5 8 4 16 9 SE 1032,0 - 0,0
22.03.2019 00:00:00 8,1 6,2 5 3 11 6 SSE 1032,8 - 0,0
21.03.2019 23:00:00 8,3 6,3 7 4 17 9 ESE 1032,7 - 0,0
21.03.2019 22:00:00 8,8 6,4 5 3 13 7 ESE 1033,2 10 0,0
21.03.2019 21:00:00 8,9 6,3 6 3 13 7 SE 1033,2 - 0,0
21.03.2019 20:00:00 9,0 6,4 6 3 12 7 SE 1033,2 - 0,0
21.03.2019 19:00:00 9,0 7,3 6 3 13 7 SW 1033,0 - 0,0
21.03.2019 18:00:00 9,2 8,3 8 4 18 10 WSW 1033,2 - 0,0
21.03.2019 17:00:00 9,4 8,2 12 6 20 11 SW 1033,3 - 0,0
21.03.2019 16:00:00 9,4 8,2 15 8 21 12 SW 1033,5 - 0,0
21.03.2019 15:00:00 9,7 7,6 16 9 23 13 SW 1034,0 - 0,0
21.03.2019 14:00:00 10,1 6,8 13 7 22 12 SW 1034,5 - 0,0
21.03.2019 13:00:00 9,7 7,3 16 9 24 13 SW 1034,9 10 0,0
21.03.2019 12:00:00 9,7 7,3 13 7 22 12 SW 1035,2 - 0,0
21.03.2019 11:00:00 9,1 7,5 15 8 23 13 SW 1035,3 - 0,0
21.03.2019 10:00:00 8,8 7,7 15 8 22 12 WSW 1035,2 14 0,0
21.03.2019 09:00:00 8,6 8,3 11 6 26 14 SW 1034,9 - 0,0
21.03.2019 08:00:00 8,3 8,0 13 7 22 12 SW 1034,6 - 0,0
21.03.2019 07:00:00 8,1 7,7 11 6 19 11 SSW 1034,4 3,0 0,0
21.03.2019 06:00:00 8,1 7,5 12 6 21 11 SSW 1034,3 - 0,0
21.03.2019 05:00:00 8,1 7,5 12 7 23 13 SW 1034,2 - 0,0
21.03.2019 04:00:00 8,0 7,4 10 6 18 10 SW 1034,1 8 0,0
21.03.2019 03:00:00 7,7 7,3 10 6 18 10 SSW 1034,3 - 0,0
21.03.2019 02:00:00 7,5 7,2 9 5 18 10 S 1034,6 6 0,0
21.03.2019 01:00:00 7,4 7,1 7 4 17 9 S 1035,0 4,0 0,0
21.03.2019 00:00:00 7,6 7,3 8 5 15 8 S 1035,1 - 0,0
20.03.2019 23:00:00 7,9 7,8 8 4 14 8 SSW 1035,0 - 0,0
20.03.2019 22:00:00 8,1 7,8 10 6 16 9 SSW 1035,1 6 0,0
20.03.2019 21:00:00 8,5 8,1 10 5 17 9 SW 1034,9 - 0,0
20.03.2019 20:00:00 8,5 7,9 10 5 18 10 WSW 1034,9 - 0,0
20.03.2019 19:00:00 8,6 8,3 13 7 23 13 SW 1034,4 5 0,0
20.03.2019 18:00:00 8,6 8,3 14 8 27 14 SW 1034,0 - 0,0
20.03.2019 17:00:00 8,6 8,2 17 9 27 15 SW 1034,1 - 0,0
20.03.2019 16:00:00 8,7 8,2 17 9 34 18 SSW 1034,2 5 0,0
20.03.2019 15:00:00 8,8 8,5 18 10 35 19 SSW 1034,3 - 0,0
20.03.2019 14:00:00 9,2 8,7 18 10 29 15 S 1034,5 - 0,0
20.03.2019 13:00:00 9,2 8,4 18 10 30 16 SW 1035,1 8 0,0
20.03.2019 12:00:00 9,5 8,6 19 11 33 18 SW 1034,5 - 0,0
20.03.2019 11:00:00 9,3 8,4 21 11 33 18 SW 1034,0 - 0,0
20.03.2019 10:00:00 9,2 8,4 14 8 27 15 SSW 1033,7 - 0,0
20.03.2019 09:00:00 8,9 8,4 16 9 26 14 SW 1033,5 - 0,0
20.03.2019 08:00:00 8,8 8,2 15 8 24 13 SW 1033,0 - 0,0
20.03.2019 07:00:00 8,6 8,2 13 7 24 13 SSW 1032,7 10 0,0
20.03.2019 06:00:00 8,6 8,0 11 6 27 15 SSW 1032,0 - 0,0
20.03.2019 05:00:00 8,7 8,1 14 8 27 15 SW 1031,8 - 0,0
20.03.2019 04:00:00 8,8 8,2 18 10 31 17 SW 1031,7 10 0,0
20.03.2019 03:00:00 8,9 8,1 16 9 28 15 SW 1032,1 - 0,0
20.03.2019 02:00:00 8,9 8,0 19 10 34 18 SW 1032,1 - 0,0
20.03.2019 01:00:00 8,9 7,7 19 10 31 17 SW 1031,8 - 0,0
20.03.2019 00:00:00 8,5 7,3 18 10 26 14 SW 1031,7 - 0,0
19.03.2019 23:00:00 8,5 7,9 11 6 25 13 SSW 1031,2 - 0,0
19.03.2019 22:00:00 8,6 8,2 17 9 25 14 SW 1031,0 - 0,0
19.03.2019 21:00:00 8,6 8,2 14 8 26 14 SW 1031,1 - 0,0
19.03.2019 20:00:00 8,6 7,8 16 9 29 16 SW 1030,3 - 0,0
19.03.2019 19:00:00 8,9 7,7 16 9 29 16 SW 1029,9 - 0,0
19.03.2019 18:00:00 9,6 7,7 20 11 31 17 SW 1029,4 - 0,0
19.03.2019 17:00:00 10,0 7,9 19 10 35 19 SW 1029,2 - 0,0
19.03.2019 16:00:00 9,6 7,7 22 12 31 17 SW 1029,1 12 0,0
19.03.2019 15:00:00 10,5 7,7 20 11 29 16 SW 1028,9 - 0,0
19.03.2019 14:00:00 9,8 7,6 21 11 31 17 SW 1029,1 - 0,0
19.03.2019 13:00:00 9,4 7,5 21 12 32 17 SW 1029,3 - 0,0
19.03.2019 12:00:00 9,6 7,2 16 9 29 16 SW 1029,0 - 0,0
19.03.2019 11:00:00 8,7 7,3 14 8 25 13 SSW 1028,7 - 0,0
19.03.2019 10:00:00 7,9 7,6 11 6 22 12 SSW 1028,1 12 0,0
19.03.2019 09:00:00 5,7 5,7 9 5 15 8 SSE 1027,8 - 0,0
19.03.2019 08:00:00 4,6 4,5 8 5 16 9 SSE 1027,3 - 0,0
19.03.2019 07:00:00 3,9 3,6 10 5 18 10 SSE 1026,8 8 0,0
19.03.2019 06:00:00 3,8 3,5 11 6 15 8 SSE 1026,7 - 0,0
19.03.2019 05:00:00 4,0 3,6 11 6 16 9 SE 1026,4 - 0,0
19.03.2019 04:00:00 4,9 4,6 9 5 16 8 SE 1025,9 - 0,2
19.03.2019 03:00:00 4,6 4,2 8 5 15 8 SE 1025,6 - 0,0
19.03.2019 02:00:00 5,2 4,6 9 5 12 7 SSE 1025,6 - 0,0
19.03.2019 01:00:00 5,5 4,8 5 3 10 5 SSE 1025,4 10 0,0
19.03.2019 00:00:00 6,0 4,8 4 2 8 5 S 1025,1 - 0,0
18.03.2019 23:00:00 6,4 4,9 6 3 10 5 SW 1024,8 - 0,0
18.03.2019 22:00:00 6,7 4,7 7 4 12 6 SW 1024,4 10 0,0
18.03.2019 21:00:00 7,2 4,5 7 4 19 10 W 1024,1 - 0,0
18.03.2019 20:00:00 7,7 4,3 12 7 26 14 W 1023,7 - 0,0
18.03.2019 19:00:00 7,8 3,8 15 8 29 16 W 1023,3 - 0,0
18.03.2019 18:00:00 8,2 4,0 20 11 32 17 W 1022,8 - 0,0
18.03.2019 17:00:00 8,5 4,3 16 9 26 14 WSW 1022,3 - 0,0
18.03.2019 16:00:00 9,1 4,3 15 8 29 16 WSW 1022,0 12 0,0
18.03.2019 15:00:00 8,4 3,6 16 8 27 14 WSW 1022,1 - 0,0
18.03.2019 14:00:00 8,5 3,7 15 8 26 14 W 1022,1 - 0,0
18.03.2019 13:00:00 8,4 4,0 17 9 25 14 W 1022,0 15 0,0
18.03.2019 12:00:00 7,8 4,0 10 5 24 13 WNW 1021,7 - 0,0
18.03.2019 11:00:00 6,7 3,5 14 8 29 16 NW 1021,2 - 0,0
18.03.2019 10:00:00 6,3 3,5 18 10 32 18 NW 1020,5 10 0,0
18.03.2019 09:00:00 6,4 3,5 17 9 30 16 NW 1019,7 - 0,0
18.03.2019 08:00:00 6,0 3,3 17 9 30 16 NW 1019,1 - 0,0
18.03.2019 07:00:00 5,8 3,6 20 11 34 18 NW 1018,3 10 0,0
18.03.2019 06:00:00 5,8 3,6 20 11 37 20 NW 1017,7 - 0,0
18.03.2019 05:00:00 6,0 4,0 19 11 36 20 NW 1017,1 - 0,0
18.03.2019 04:00:00 6,2 3,9 21 11 39 21 NW 1016,4 14 0,0
18.03.2019 03:00:00 6,5 3,5 25 14 47 26 NW 1015,8 - 0,0
18.03.2019 02:00:00 6,8 3,4 25 14 43 23 WNW 1015,1 - 0,0
18.03.2019 01:00:00 6,4 3,0 25 13 45 25 WNW 1014,4 16 0,0
18.03.2019 00:00:00 6,5 2,8 23 13 48 26 WNW 1013,8 - 0,0
17.03.2019 23:00:00 7,1 2,8 32 17 51 28 WNW 1013,2 - 0,0

tt = Température de l'air
td = dewpoint
ff = Vitesse du vent
fx = gusts
dd = Direction du vent
ppp = reduced air pressure
vv = visibility
rr = Quantités de précipitations

stations d'obs. à proximité